Location: D�nning
(49.2479°N, 12.8491°E)
Time: 03:17:22
(UTC+00:00)

USA 234 - Pass Details

Date: 18 September 2020
Orbit: 1102 x 1106 km, 123.0° (Epoch: 16 October)

Event Time Altitude Azimuth Distance (km) Brightness Sun altitude
Rises 18:32:43 0° 57° (ENE) 3,927 5.8 -13.4°
Reaches altitude 10° 18:35:29 10° 66° (ENE) 2,967 5.1 -13.8°
Maximum altitude 18:41:23 35° 131° (SE) 1,693 3.8 -14.7°
Drops below altitude 10° 18:47:17 10° 196° (SSW) 2,956 5.5 -15.6°
Sets 18:50:00 0° 205° (SSW) 3,911 6.2 -16.0°
